When you browse on this site, cookies collect data to enhance your experience and personalize the content and advertising you see.
Visit our Privacy Policy to learn more. By continuing to use the site, you agree to this use of cookies and data.
  • In Spain
  • List of Countries
  • For 7 days
  • Water Temperature
  • Weather Map
  • Weather Widgets
  • user-avatar
    Login

    Hourly Weather Mostar

    Today, 17 February, Monday

    Time Temperature Precipitation Wind Pressure Humidity
    00:00 +8°C° 0 mm 1 mps 764 mmHg 74%
    01:00 +8°C° 0 mm 1 mps 764 mmHg 74%
    02:00 +8°C° 0 mm 1 mps 764 mmHg 73%
    03:00 +8°C° 0 mm 1 mps 763 mmHg 72%
    04:00 +7°C° 0 mm 1 mps 763 mmHg 71%
    05:00 +7°C° 0 mm 1 mps 763 mmHg 69%
    06:00 +7°C° 0 mm 1 mps 763 mmHg 67%
    07:00 +7°C° 0 mm 1 mps 763 mmHg 66%
    08:00 +9°C° 0 mm 1 mps 763 mmHg 60%
    09:00 +11°C° 0 mm 1 mps 763 mmHg 55%
    10:00 +12°C° 0 mm 0 mps 762 mmHg 50%
    11:00 +14°C° 0 mm 1 mps 762 mmHg 48%
    12:00 +15°C° 0 mm 1 mps 762 mmHg 46%
    13:00 +16°C° 0 mm 1 mps 761 mmHg 44%
    14:00 +15°C° 0 mm 1 mps 761 mmHg 48%
    15:00 +15°C° 0 mm 1 mps 760 mmHg 53%
    16:00 +15°C° 0 mm 1 mps 760 mmHg 57%
    17:00 +13°C° 0 mm 1 mps 760 mmHg 60%
    18:00 +11°C° 0 mm 0 mps 760 mmHg 63%
    19:00 +10°C° 0 mm 0 mps 760 mmHg 66%
    20:00 +9°C° 0 mm 0 mps 760 mmHg 66%
    21:00 +9°C° 0 mm 0 mps 760 mmHg 66%
    22:00 +9°C° 0 mm 0 mps 760 mmHg 66%
    23:00 +9°C° 0 mm 0 mps 760 mmHg 65%

    Tomorrow, 18 February, Tuesday

    Time Temperature Precipitation Wind Pressure Humidity
    00:00 +9°C° 0 mm 1 mps 760 mmHg 65%
    01:00 +9°C° 0 mm 1 mps 760 mmHg 65%
    02:00 +9°C° 0 mm 1 mps 760 mmHg 64%
    03:00 +9°C° 0 mm 1 mps 759 mmHg 64%
    04:00 +9°C° 0 mm 1 mps 759 mmHg 63%
    05:00 +9°C° 0 mm 1 mps 759 mmHg 63%
    06:00 +9°C° 0 mm 1 mps 760 mmHg 63%
    07:00 +9°C° 0 mm 1 mps 760 mmHg 63%
    08:00 +10°C° 0 mm 1 mps 760 mmHg 59%
    09:00 +12°C° 0 mm 1 mps 760 mmHg 56%
    10:00 +14°C° 0 mm 1 mps 760 mmHg 53%
    11:00 +15°C° 0 mm 1 mps 760 mmHg 52%
    12:00 +16°C° 0 mm 1 mps 760 mmHg 51%
    13:00 +17°C° 0 mm 2 mps 760 mmHg 51%
    14:00 +17°C° 0 mm 2 mps 759 mmHg 55%
    15:00 +16°C° 0 mm 2 mps 759 mmHg 59%
    16:00 +16°C° 0 mm 2 mps 759 mmHg 63%
    17:00 +14°C° 0 mm 2 mps 759 mmHg 68%
    18:00 +13°C° 0 mm 2 mps 759 mmHg 72%
    19:00 +10°C° 0 mm 2 mps 760 mmHg 77%
    20:00 +10°C° 0 mm 2 mps 760 mmHg 78%
    21:00 +9°C° 0 mm 2 mps 760 mmHg 79%
    22:00 +9°C° 0 mm 2 mps 760 mmHg 80%
    23:00 +9°C° 0 mm 2 mps 760 mmHg 80%

    Day after tomorrow, 19 February, Wednesday

    Time Temperature Precipitation Wind Pressure Humidity
    00:00 +8°C° 0 mm 2 mps 760 mmHg 80%
    01:00 +8°C° 0 mm 2 mps 759 mmHg 79%
    02:00 +8°C° 0 mm 2 mps 759 mmHg 80%
    03:00 +8°C° 0 mm 2 mps 759 mmHg 80%
    04:00 +8°C° 0 mm 2 mps 758 mmHg 80%
    05:00 +8°C° 0 mm 2 mps 758 mmHg 80%
    06:00 +7°C° 0 mm 2 mps 758 mmHg 80%
    07:00 +7°C° 0 mm 2 mps 758 mmHg 81%
    08:00 +9°C° 0 mm 2 mps 758 mmHg 75%
    09:00 +11°C° 0 mm 1 mps 758 mmHg 70%
    10:00 +13°C° 0 mm 1 mps 757 mmHg 65%
    11:00 +13°C° 0 mm 1 mps 757 mmHg 63%
    12:00 +14°C° 0 mm 1 mps 756 mmHg 62%
    13:00 +15°C° 0 mm 1 mps 756 mmHg 61%
    14:00 +14°C° 0.1 mm 1 mps 755 mmHg 64%
    15:00 +14°C° 0.1 mm 1 mps 755 mmHg 68%
    16:00 +14°C° 0.1 mm 2 mps 754 mmHg 72%
    17:00 +13°C° 0.2 mm 1 mps 754 mmHg 77%
    18:00 +12°C° 0.2 mm 1 mps 754 mmHg 82%
    19:00 +10°C° 0.2 mm 0 mps 755 mmHg 87%
    20:00 +11°C° 0.4 mm 1 mps 755 mmHg 87%
    21:00 +10°C° 0.4 mm 1 mps 755 mmHg 87%
    22:00 +10°C° 0.4 mm 1 mps 755 mmHg 86%
    23:00 +9°C° 0.2 mm 2 mps 755 mmHg 86%

    20 February, Thursday

    Time Temperature Precipitation Wind Pressure Humidity
    00:00 +9°C° 0.2 mm 2 mps 755 mmHg 86%
    01:00 +9°C° 0.2 mm 3 mps 756 mmHg 86%
    02:00 +8°C° 0.1 mm 3 mps 756 mmHg 84%
    03:00 +7°C° 0.1 mm 4 mps 756 mmHg 82%
    04:00 +6°C° 0.1 mm 4 mps 756 mmHg 80%
    05:00 +6°C° 0 mm 4 mps 757 mmHg 77%
    06:00 +5°C° 0 mm 4 mps 757 mmHg 74%
    07:00 +5°C° 0 mm 4 mps 758 mmHg 71%
    08:00 +5°C° 0 mm 5 mps 758 mmHg 63%
    09:00 +6°C° 0 mm 5 mps 758 mmHg 55%
    10:00 +7°C° 0 mm 5 mps 759 mmHg 47%
    11:00 +8°C° 0 mm 5 mps 759 mmHg 45%
    12:00 +8°C° 0 mm 5 mps 759 mmHg 42%
    13:00 +10°C° 0 mm 4 mps 758 mmHg 40%
    14:00 +10°C° 0 mm 4 mps 758 mmHg 41%
    15:00 +10°C° 0 mm 4 mps 758 mmHg 43%
    16:00 +9°C° 0 mm 3 mps 758 mmHg 44%
    17:00 +8°C° 0 mm 3 mps 759 mmHg 50%
    18:00 +7°C° 0 mm 3 mps 759 mmHg 56%
    19:00 +5°C° 0 mm 2 mps 760 mmHg 63%
    20:00 +5°C° 0 mm 2 mps 760 mmHg 65%
    21:00 +4°C° 0 mm 2 mps 761 mmHg 68%
    22:00 +4°C° 0 mm 2 mps 761 mmHg 70%
    23:00 +4°C° 0 mm 2 mps 761 mmHg 71%

    21 February, Friday

    Time Temperature Precipitation Wind Pressure Humidity
    00:00 +4°C° 0 mm 2 mps 761 mmHg 71%
    01:00 +3°C° 0 mm 2 mps 761 mmHg 72%
    02:00 +3°C° 0 mm 2 mps 761 mmHg 71%
    03:00 +3°C° 0 mm 2 mps 761 mmHg 69%
    04:00 +3°C° 0 mm 2 mps 761 mmHg 68%
    05:00 +3°C° 0 mm 2 mps 761 mmHg 66%
    06:00 +3°C° 0 mm 2 mps 761 mmHg 63%
    07:00 +3°C° 0 mm 2 mps 762 mmHg 61%
    14:00 +14°C° 0 mm 1 mps 762 mmHg 34%
    15:00 +13°C° 0 mm 1 mps 762 mmHg 40%
    16:00 +13°C° 0 mm 1 mps 762 mmHg 45%
    17:00 +11°C° 0 mm 1 mps 762 mmHg 48%
    18:00 +9°C° 0 mm 2 mps 763 mmHg 50%
    19:00 +7°C° 0 mm 2 mps 764 mmHg 53%
    20:00 +7°C° 0 mm 2 mps 764 mmHg 53%
    21:00 +7°C° 0 mm 2 mps 764 mmHg 53%
    22:00 +6°C° 0 mm 2 mps 765 mmHg 53%
    23:00 +6°C° 0 mm 2 mps 765 mmHg 54%

    22 February, Saturday

    Time Temperature Precipitation Wind Pressure Humidity
    00:00 +6°C° 0 mm 2 mps 765 mmHg 55%
    01:00 +5°C° 0 mm 2 mps 766 mmHg 57%
    02:00 +5°C° 0 mm 2 mps 766 mmHg 58%
    03:00 +5°C° 0 mm 2 mps 766 mmHg 59%
    04:00 +5°C° 0 mm 2 mps 765 mmHg 61%
    05:00 +5°C° 0 mm 2 mps 766 mmHg 62%
    06:00 +5°C° 0 mm 2 mps 766 mmHg 63%
    07:00 +5°C° 0 mm 2 mps 766 mmHg 63%
    08:00 +8°C° 0 mm 1 mps 766 mmHg 59%
    09:00 +10°C° 0 mm 1 mps 766 mmHg 54%
    10:00 +12°C° 0 mm 1 mps 766 mmHg 49%
    11:00 +13°C° 0 mm 1 mps 765 mmHg 47%
    12:00 +14°C° 0 mm 1 mps 765 mmHg 45%
    13:00 +15°C° 0 mm 1 mps 765 mmHg 43%
    14:00 +15°C° 0 mm 1 mps 765 mmHg 46%
    15:00 +14°C° 0 mm 1 mps 764 mmHg 49%
    16:00 +14°C° 0 mm 2 mps 764 mmHg 52%
    17:00 +13°C° 0 mm 1 mps 764 mmHg 56%
    18:00 +11°C° 0 mm 1 mps 765 mmHg 61%
    19:00 +10°C° 0 mm 1 mps 765 mmHg 65%
    20:00 +10°C° 0 mm 1 mps 765 mmHg 66%
    21:00 +9°C° 0 mm 1 mps 765 mmHg 66%
    22:00 +8°C° 0 mm 0 mps 765 mmHg 67%
    23:00 +9°C° 0 mm 1 mps 765 mmHg 67%
    Show more